Location: Stendal
(52.5994°N, 11.8400°E)
Time: 05:41:41
(UTC+02:00)

X-37B - Visible Passes

Search period start: 29 July 2021 00:00
Search period end: 08 August 2021 00:00
Orbit: 383 x 392 km, 45.0° (Epoch: 01 July)

Date Brightness Start Highest point End Pass type
(mag) Time Alt. Az. Time Alt. Az. Time Alt. Az.
04 Aug 3.0 04:16:03 10° S 04:17:17 12° SSE 04:18:32 10° SE visible
05 Aug 2.4 04:52:43 10° SW 04:55:02 19° S 04:57:21 10° ESE visible
06 Aug 2.6 03:56:29 15° S 03:56:54 15° SSE 03:58:52 10° SE visible
07 Aug 2.2 04:32:54 14° SW 04:34:42 21° S 04:37:11 10° SE visible
